Date String (YYYY-MM-DD hh:mm:ss) UTC,Instrument flags,Ambient pressure (hPa),Sample flow (lpm),Bypass flow (lpm),Sample temperature (°C),Ambient temperature (°C),ASC tube jacket temperature (°C),LED temperature (°C),Box temperature (°C),Sample RH (%),Span deviation,Mass concentration (μg/m³),Mass concentration (μg/m³),Mass concentration (μg/m³)
DateTimeUTC,F1_M11,P_M11,Q1_M11,Q2_M11,T1_M11,T2_M11,T3_M11,T4_M11,T5_M11,U1_M11,ZSPAN_M11,X0_M11,X2_M11,X1_M11
2021-12-20 05:00:00,,0824.3,4.99,0.00,24.5,23.6,00.0,33.4,26.2,04.6,0000.0,0000.80,0000.62,0000.56
2021-12-20 05:01:00,,0824.3,5.01,0.00,24.5,23.6,00.0,33.4,26.2,04.6,0000.0,0000.81,0000.62,0000.56
2021-12-20 05:02:00,,0824.2,5.00,0.00,24.5,23.6,00.0,33.4,26.1,04.6,0000.0,0000.80,0000.61,0000.55
2021-12-20 05:03:00,,0824.2,5.00,0.00,24.5,23.6,00.0,33.4,26.1,04.5,0000.0,0000.80,0000.61,0000.55
2021-12-20 05:04:00,,0824.2,5.01,0.00,24.5,23.6,00.0,33.4,26.1,04.6,0000.0,0000.78,0000.59,0000.53
2021-12-20 05:05:00,,0824.2,4.99,0.00,24.4,23.6,00.0,33.4,26.1,04.5,0000.0,0000.77,0000.58,0000.52
2021-12-20 05:06:00,,0824.2,5.01,0.00,24.4,23.5,00.0,33.4,26.1,04.5,0000.0,0000.76,0000.58,0000.52
2021-12-20 05:07:00,,0824.1,4.99,0.00,24.4,23.5,00.0,33.4,26.1,04.5,0000.0,0000.74,0000.57,0000.52
2021-12-20 05:08:00,,0824.1,5.00,0.00,24.4,23.5,00.0,33.4,26.1,04.5,0000.0,0000.72,0000.56,0000.51
2021-12-20 05:09:00,,0824.2,5.01,0.00,24.4,23.5,00.0,33.4,26.1,04.5,0000.0,0000.67,0000.55,0000.52
2021-12-20 05:10:00,,0824.3,4.99,0.00,24.4,23.5,00.0,33.4,26.1,04.6,0000.0,0000.74,0000.57,0000.51
2021-12-20 05:11:00,,0824.2,5.01,0.00,24.4,23.4,00.0,33.4,26.0,04.6,0000.0,0000.74,0000.58,0000.52
2021-12-20 05:12:00,,0824.3,4.99,0.00,24.4,23.4,00.0,33.4,26.0,04.6,0000.0,0000.74,0000.58,0000.52
2021-12-20 05:13:00,,0824.2,5.00,0.00,24.4,23.4,00.0,33.4,26.0,04.6,0000.0,0000.79,0000.59,0000.52
2021-12-20 05:14:00,,0824.2,5.00,0.00,24.4,23.4,00.0,33.4,26.0,04.6,0000.0,0000.80,0000.60,0000.52
2021-12-20 05:15:00,,0824.2,5.01,0.00,24.4,23.4,00.0,33.4,26.0,04.6,0000.0,0000.82,0000.61,0000.53
2021-12-20 05:16:00,,0824.2,4.99,0.00,24.4,23.4,00.0,33.4,26.0,04.6,0000.0,0000.83,0000.61,0000.53
2021-12-20 05:17:00,,0824.2,5.00,0.00,24.4,23.4,00.0,33.4,26.0,04.6,0000.0,0000.78,0000.59,0000.52
2021-12-20 05:18:00,,0824.4,5.01,0.00,24.3,23.4,00.0,33.4,26.0,04.6,0000.0,0000.83,0000.61,0000.52
2021-12-20 05:19:00,,0824.4,5.00,0.00,24.3,23.3,00.0,33.4,25.9,04.6,0000.0,0000.86,0000.63,0000.51
2021-12-20 05:20:00,,0824.4,5.01,0.00,24.3,23.3,00.0,33.4,25.9,04.6,0000.0,0000.88,0000.64,0000.51
2021-12-20 05:21:00,,0824.4,5.00,0.00,24.3,23.3,00.0,33.4,25.9,04.6,0000.0,0000.84,0000.62,0000.50
2021-12-20 05:22:00,,0824.4,4.99,0.00,24.3,23.2,00.0,33.4,25.9,04.6,0000.0,0000.84,0000.61,0000.50
2021-12-20 05:23:00,,0824.4,5.01,0.00,24.3,23.2,00.0,33.3,25.9,04.6,0000.0,0000.85,0000.62,0000.50
2021-12-20 05:24:00,,0824.4,5.00,0.00,24.3,23.2,00.0,33.3,25.9,04.6,0000.0,0000.78,0000.60,0000.50
2021-12-20 05:25:00,,0824.4,5.00,0.00,24.3,23.2,00.0,33.3,25.9,04.6,0000.0,0000.77,0000.59,0000.50
2021-12-20 05:26:00,,0824.4,5.00,0.00,24.3,23.2,00.0,33.3,25.9,04.6,0000.0,0000.79,0000.61,0000.50
2021-12-20 05:27:00,,0824.4,5.01,0.00,24.3,23.3,00.0,33.3,26.0,04.6,0000.0,0000.78,0000.60,0000.49
2021-12-20 05:28:00,,0824.3,5.01,0.00,24.3,23.3,00.0,33.3,25.9,04.6,0000.0,0000.84,0000.62,0000.50
2021-12-20 05:29:00,,0824.3,4.99,0.00,24.3,23.3,00.0,33.3,25.9,04.6,0000.0,0000.87,0000.62,0000.50
2021-12-20 05:30:00,,0824.3,5.01,0.00,24.3,23.3,00.0,33.3,25.9,04.6,0000.0,0000.85,0000.61,0000.50
2021-12-20 05:31:00,,0824.4,4.99,0.00,24.3,23.3,00.0,33.3,25.9,04.6,0000.0,0000.82,0000.60,0000.51
2021-12-20 05:32:00,,0824.2,5.01,0.00,24.3,23.3,00.0,33.3,25.9,04.6,0000.0,0000.79,0000.60,0000.51
2021-12-20 05:33:00,,0824.2,5.00,0.00,24.3,23.3,00.0,33.3,26.0,04.6,0000.0,0000.76,0000.59,0000.52
2021-12-20 05:34:00,,0824.2,4.98,0.00,24.3,23.2,00.0,33.3,25.9,04.6,0000.0,0000.77,0000.59,0000.51
2021-12-20 05:35:00,,0824.3,5.00,0.00,24.2,23.2,00.0,33.3,25.9,04.7,0000.0,0000.77,0000.59,0000.51
2021-12-20 05:36:00,,0824.2,5.00,0.00,24.2,23.2,00.0,33.3,25.9,04.7,0000.0,0000.78,0000.60,0000.51
2021-12-20 05:37:00,,0824.1,5.01,0.00,24.2,23.2,00.0,33.3,25.8,04.7,0000.0,0000.80,0000.60,0000.52
2021-12-20 05:38:00,,0824.1,5.01,0.00,24.2,23.3,00.0,33.3,25.8,04.8,0000.0,0000.81,0000.59,0000.51
2021-12-20 05:39:00,,0824.2,4.99,0.00,24.2,23.3,00.0,33.3,25.7,04.8,0000.0,0000.79,0000.59,0000.51
2021-12-20 05:40:00,,0824.2,5.00,0.00,24.2,23.2,00.0,33.3,25.7,04.8,0000.0,0000.72,0000.57,0000.50
2021-12-20 05:41:00,,0824.2,5.00,0.00,24.2,23.2,00.0,33.3,25.8,04.8,0000.0,0000.69,0000.56,0000.50
2021-12-20 05:42:00,,0824.2,4.99,0.00,24.2,23.2,00.0,33.3,25.8,04.8,0000.0,0000.71,0000.56,0000.50
2021-12-20 05:43:00,,0824.2,5.00,0.00,24.2,23.2,00.0,33.3,25.9,04.8,0000.0,0000.72,0000.56,0000.49
2021-12-20 05:44:00,,0824.2,5.02,0.00,24.2,23.1,00.0,33.2,25.8,04.8,0000.0,0000.74,0000.57,0000.49
2021-12-20 05:45:00,,0824.2,4.99,0.00,24.2,23.1,00.0,33.2,25.7,04.8,0000.0,0000.74,0000.57,0000.49
2021-12-20 05:46:00,,0824.2,5.00,0.00,24.2,23.1,00.0,33.2,25.8,04.7,0000.0,0000.74,0000.56,0000.49
2021-12-20 05:47:00,,0824.1,5.00,0.00,24.2,23.2,00.0,33.2,25.8,04.8,0000.0,0000.74,0000.56,0000.50
2021-12-20 05:48:00,,0824.1,5.00,0.00,24.2,23.1,00.0,33.2,25.7,04.7,0000.0,0000.72,0000.56,0000.50
2021-12-20 05:49:00,,0824.1,5.02,0.00,24.1,23.1,00.0,33.2,25.6,04.8,0000.0,0000.70,0000.56,0000.50
2021-12-20 05:50:00,,0824.1,4.98,0.00,24.1,23.1,00.0,33.2,25.6,04.8,0000.0,0000.72,0000.57,0000.51
2021-12-20 05:51:00,,0824.0,5.01,0.00,24.1,23.1,00.0,33.2,25.6,04.8,0000.0,0000.72,0000.57,0000.52
2021-12-20 05:52:00,,0824.0,5.00,0.00,24.1,23.1,00.0,33.2,25.6,04.8,0000.0,0000.80,0000.58,0000.52
2021-12-20 05:53:00,,0824.0,4.99,0.00,24.0,23.0,00.0,33.2,25.5,04.9,0000.0,0000.83,0000.59,0000.51
2021-12-20 05:54:00,,0824.0,5.01,0.00,24.0,23.0,00.0,33.2,25.5,04.9,0000.0,0000.82,0000.59,0000.51
2021-12-20 05:55:00,,0824.0,4.99,0.00,24.0,23.0,00.0,33.1,25.5,04.9,0000.0,0000.82,0000.59,0000.52
2021-12-20 05:56:00,,0824.1,5.00,0.00,24.0,23.0,00.0,33.1,25.5,04.9,0000.0,0000.81,0000.59,0000.52
2021-12-20 05:57:00,,0824.0,5.00,0.00,24.0,23.0,00.0,33.1,25.5,04.9,0000.0,0000.81,0000.60,0000.53
2021-12-20 05:58:00,,0824.0,5.00,0.00,24.0,23.0,00.0,33.1,25.5,04.9,0000.0,0000.96,0000.59,0000.51
2021-12-20 05:59:00,,0824.0,4.99,0.00,24.0,23.0,00.0,33.1,25.6,04.9,0000.0,0001.19,0000.58,0000.51
